{"data":{"norad_id":47884,"intl_designator":"2021-021AA","name":"STARLINK-2343","alt_names":[],"object_type":"PAYLOAD","status":"ACTIVE","operator":null,"country":"US","launch_date":"2021-03-14","launch_site_code":"AFETR","launch_vehicle":null,"mission":null,"orbit_class":"UNKNOWN","rcs_meters":null,"size_class":null,"mass_kg":null,"dimensions":null,"purposes":["comms"],"wikipedia_slug":null,"has_3d_model":false,"image_url":null,"decayed_at":null,"tle_current":{"epoch":"2026-09-20T04:00:14.822208Z","epoch_age_seconds":58021,"freshness":"FRESH","line1":"1 47884U 21021AA  26263.16683822 -.00000870  00000+0 -16259-4 0  9995","line2":"2 47884  53.1580  95.9583 0001460  88.3670 271.7499 15.31697309305851","mean_motion":15.31697309,"eccentricity":0.000146,"inclination_deg":53.158,"raan_deg":95.9583,"arg_perigee_deg":88.367,"mean_anomaly_deg":271.7499,"bstar":-1.6259e-5,"rev_number":30585,"period_min":94.013353130465,"perigee_km":469.74807975589,"apogee_km":471.74795418084,"semimajor_km":6848.8850169684,"source":"CELESTRAK","updated_at":"2026-09-20T09:00:38.755822Z"}}}